Content
SEND FEEDBACK

Daily
Averages
Monthly
Summary
United States of America

CENTERVILLE, GEORGIA


Home > North America > United States > Georgia
Elevation: 359 feet     Latitude: 32 42N     Longitude: 083 39W

WEATHER
 
SELECT A DAY
Number of Records: 35,863;   Date Range: 9/1/12 - 12/17/14
 
SHARE

PRINT THIS DATA

[ ← Previous Day ]
WEATHER ALMANAC - JANUARY 31, 2013
[ Next Day → ]
[ °C ]   °F
Weather ElementAverageHighLow
Temperature45.6 °F55 °F (3:55 pm)37.8 °F (7:55 am)
Dewpoint25.3 °F34.7 °F (1:55 am)19.9 °F (3:55 pm)
Humidity47.5 %75 % (11:55 pm)25 % (3:55 pm)
Barometer30.11 in30.23 in (10:55 pm)29.93 in (1:55 am)
Wind Speed10.6 mph15 mph (4:55 am)
Wind Gust27.6 mph (1:55 pm)
Weather ElementAverage
Visibility10 mi
Wind DirectionWSW (255.7 °)

Weather ElementTotal
Precipitation---
Heating Degree Days18.6 (Base 65)
Averaged from 23 records on January 31, 2013
WEATHER CONDITIONS BREAKOUT
WIND DIRECTION BREAKOUT
WEATHER BY HOUR - JANUARY 31, 2013
[ °C ]   °F
Local TimeTemperatureDewpointHumidityBarometerVisibilityWind DirectionWind SpeedGust SpeedPrecipitationEventsConditions
1:55 AM47.1 °F34.7 °F62 %29.93 in10.0 miWest (280°)13.8 mph23.0 mphMostly Cloudy
2:55 AM44.6 °F30.0 °F57 %29.96 in10.0 miWest (270°)12.7 mph20.7 mphClear
3:55 AM43.3 °F30.6 °F61 %29.98 in10.0 miWNW (300°)9.2 mph17.3 mphPartly Cloudy
4:55 AM40.8 °F26.2 °F56 %30.01 in10.0 miWNW (290°)15.0 mph19.6 mphClear
5:55 AM39.6 °F26.6 °F60 %30.04 in10.0 miWNW (300°)8.1 mphClear
6:55 AM38.1 °F26.4 °F63 %30.06 in10.0 miNW (310°)13.8 mph21.9 mphClear
7:55 AM37.8 °F26.8 °F65 %30.09 in10.0 miWNW (300°)12.7 mphClear
8:55 AM39.9 °F27.1 °F60 %30.10 in10.0 miNW (320°)15.0 mph21.9 mphClear
9:55 AM43.0 °F26.6 °F52 %30.13 in10.0 miWNW (300°)15.0 mph23.0 mphClear
10:55 AM46.6 °F25.9 °F44 %30.13 in10.0 miWNW (290°)11.5 mphClear
11:55 AM49.3 °F24.4 °F38 %30.14 in10.0 miWest (280°)13.8 mph19.6 mphClear
12:55 PM51.6 °F23.2 °F33 %30.14 in10.0 miWest (280°)13.8 mphClear
1:55 PM53.6 °F21.2 °F28 %30.12 in10.0 miWest (280°)15.0 mph27.6 mphClear
2:55 PM54.7 °F20.8 °F27 %30.13 in10.0 miNW (310°)15.0 mph25.3 mphClear
3:55 PM55.0 °F19.9 °F25 %30.13 in10.0 miNW (310°)15.0 mphClear
4:55 PM54.1 °F20.1 °F26 %30.13 in10.0 miNW (320°)12.7 mphClear
5:55 PM50.2 °F20.8 °F32 %30.15 in10.0 miNW (320°)11.5 mphClear
6:55 PM46.8 °F21.9 °F37 %30.16 in10.0 miWNW (290°)5.8 mphClear
7:55 PM46.8 °F23.0 °F39 %30.19 in10.0 miWest (270°)8.1 mphClear
8:55 PM45.1 °F23.5 °F43 %30.21 in10.0 miWest (260°)6.9 mphClear
9:55 PM41.7 °F26.8 °F55 %30.21 in10.0 miCalmClear
10:55 PM41.4 °F25.7 °F54 %30.23 in10.0 miCalmClear
11:55 PM37.8 °F30.4 °F75 %30.23 in10.0 miCalmClear
Hourly data recorded from KWRB, located miles away from Centerville, Georgia







STORIES FROM OUR PARTNERS